Temperature
17 17 17 17 17 17 17 17 17 17 17 17 17 17 17 18 18 18 18 18 18 18 18 18 18 18 18 18 18 18 18 18 18 18 18 18 18 18 18 18 18 18 18
17 17 17 17 17 17 17 17 17 17 17 17 17 17 17 17 18 18 18 18 18 18 18 18 18 18 18 18 18 18 18 18 18 18 18 18 18 18 18 18 18 18 18
17 16 17 17 17 17 17 17 17 17 17 17 17 17 17 17 17 18 18 18 18 18 18 18 18 18 18 18 18 18 18 18 18 18 18 17 17 18 18 18 18 18 18
17 16 16 17 17 17 17 17 17 17 17 17 17 17 17 17 17 17 17 17 17 17 17 17 17 18 18 18 18 18 18 18 18 18 17 17 17 17 18 18 18 18 18
17 16 16 17 17 17 17 17 17 17 17 17 17 17 17 17 17 17 17 17 17 17 17 17 17 17 17 18 18 18 18 18 18 17 17 17 17 17 17 17 17 17 17
17 16 16 17 17 17 17 17 17 17 17 17 17 17 17 17 17 17 17 17 17 17 17 17 17 17 17 17 17 18 18 17 17 17 17 17 17 17 17 17 17 17 17
17 17 16 17 17 17 17 17 17 17 17 17 17 17 17 17 17 17 17 17 17 17 17 17 17 17 17 17 17 17 17 17 17 17 16 17 17 17 17 17 17 17 17
17 17 16 17 17 17 17 17 17 17 17 17 17 17 17 17 17 17 17 17 17 17 17 17 17 17 17 17 17 17 17 17 16 16 16 17 17 17 17 17 17 17 17
17 17 17 16 16 17 17 16 16 16 16 16 16 17 17 17 17 17 17 17 17 17 16 17 17 17 17 17 17 17 17 17 16 16 16 16 17 17 17 17 17 17 17
17 17 17 16 16 16 16 16 16 16 16 16 16 16 16 16 16 16 16 16 16 16 16 16 16 16 16 16 17 16 16 16 16 16 16 16 16 16 16 16 16 16 16
17 17 17 17 16 16 16 16 16 16 16 16 16 16 16 16 16 16 16 16 16 16 16 16 16 16 16 16 16 16 16 16 16 16 16 16 16 16 16 16 16 16 16
17 17 17 17 16 16 16 16 16 16 16 16 16 16 16 16 16 16 16 16 16 16 16 16 16 16 16 16 16 16 16 16 15 15 16 16 16 16 16 16 16 16 16
17 17 17 17 17 17 16 16 16 16 16 16 16 16 16 16 16 16 16 16 16 16 16 16 16 16 16 16 16 15 15 15 15 15 15 16 16 16 16 16 16 16 16
17 17 17 17 17 17 17 16 16 16 16 16 16 16 16 16 16 16 16 16 16 16 16 16 16 15 15 15 15 15 15 15 15 15 15 15 16 16 16 16 15 15 15
17 17 17 17 17 17 17 16 16 16 16 16 16 16 16 16 16 16 15 15 15 15 15 15 15 15 15 15 15 15 15 15 15 15 15 15 15 15 15 15 15 15 15
18 17 17 17 17 17 17 16 16 16 16 16 15 15 15 15 15 15 15 15 15 15 15 15 15 15 15 15 15 15 15 15 15 15 15 15 15 15 15 15 15 15 15
18 18 17 17 17 17 16 16 16 16 16 15 15 15 15 15 15 15 15 15 15 15 15 15 15 15 14 14 14 14 14 14 14 15 14 14 14 15 15 15 15 15 15
18 18 17 17 17 17 16 16 16 16 15 15 15 15 15 15 15 15 15 15 15 15 15 15 15 14 14 14 14 14 14 14 14 14 14 14 14 14 14 15 15 15 14
18 18 17 17 17 16 16 16 16 15 15 15 15 15 15 15 15 15 15 15 15 15 15 14 14 14 14 14 14 14 14 14 14 14 14 14 14 14 14 14 14 14 14
18 18 17 17 17 16 16 16 15 15 15 15 15 15 15 15 14 14 14 14 14 14 14 14 14 14 14 14 14 14 14 14 14 14 14 14 14 14 14 14 14 14 14
18 18 17 17 17 16 16 16 15 15 15 15 15 15 15 14 14 14 14 14 14 14 14 14 14 14 14 14 14 14 14 14 14 13 13 13 13 13 13 13 13 13 13
18 17 17 17 17 16 16 16 15 15 15 15 15 15 14 14 14 14 14 14 14 14 14 14 14 14 14 14 14 14 14 14 13 13 13 13 13 13 13 13 13 13 13
18 17 17 17 16 16 16 15 15 15 15 15 15 15 14 14 14 14 14 14 14 14 14 14 14 14 14 14 14 14 15 15 14 13 13 13 13 13 13 13 13 13 13
18 18 17 17 16 16 16 15 15 15 15 15 15 14 14 14 14 14 14 14 14 14 14 14 14 14 14 13 14 14 14 14 14 14 13 13 13 13 13 13 13 13 12
18 17 17 17 16 16 16 16 15 15 15 15 15 14 14 14 14 14 14 14 14 14 14 14 14 14 13 13 13 13 13 13 14 14 14 13 13 13 13 12 12 12 12
18 18 17 17 16 16 16 16 15 15 15 15 14 14 14 14 14 14 14 14 14 13 13 13 13 13 13 13 13 13 13 13 13 14 14 13 13 13 12 12 12 12 12
Wind_Speed
3 3 4 2 3 4 5 5 5 5 5 5 5 6 6 6 6 6 6 6 6 7 7 8 8 9 9 9 9 9 9 9 8 8 9 8 8 8 8 7 5 8 8
3 4 4 3 3 4 5 5 6 6 5 5 6 6 7 7 7 7 6 6 7 8 8 8 9 9 9 10 10 9 9 9 9 8 8 8 8 7 7 6 5 7 7
4 4 4 4 4 4 5 6 6 6 6 5 6 6 7 7 7 7 7 7 8 8 9 9 10 10 10 10 10 10 10 9 9 6 4 6 8 8 7 7 7 7 6
4 4 5 5 4 5 6 6 7 7 7 6 6 7 7 7 7 8 8 8 8 8 9 9 9 10 10 10 10 10 10 9 7 3 4 6 7 9 7 6 6 6 5
5 5 6 5 5 6 6 6 7 7 7 7 6 7 7 7 8 8 9 9 9 8 8 8 9 10 10 10 10 10 10 8 6 4 6 6 7 9 7 6 6 6 5
5 5 7 5 6 6 6 7 7 7 7 7 7 7 8 8 8 8 9 8 8 8 8 8 9 10 10 10 10 10 9 7 4 6 6 6 7 9 7 7 6 6 6
6 6 7 6 6 7 7 7 7 7 8 8 7 7 8 8 8 8 8 8 8 8 8 8 10 10 10 10 10 9 8 6 5 6 6 6 8 8 7 7 6 6 6
5 5 7 8 7 7 8 8 8 8 8 8 8 9 9 9 9 9 9 9 9 9 9 9 10 10 10 10 10 9 7 4 6 6 6 7 9 8 7 7 7 6 6
5 5 5 6 7 7 8 8 8 8 8 8 8 9 10 10 10 9 9 9 9 9 9 9 10 10 10 10 10 9 8 6 5 6 7 8 9 8 8 8 8 8 8
5 4 4 5 5 5 7 8 8 8 8 8 8 8 8 8 9 9 9 10 10 9 9 9 10 10 10 11 10 9 6 4 7 7 7 9 11 9 9 9 9 9 9
4 4 3 4 4 4 5 6 6 6 6 5 6 6 5 6 7 8 10 10 10 10 10 10 10 10 10 11 10 7 5 6 7 7 8 10 10 9 9 9 9 9 9
4 4 3 3 3 3 3 3 4 4 5 4 5 5 5 7 7 7 10 9 9 10 10 10 9 8 6 7 8 5 6 7 6 7 9 11 10 10 10 10 10 9 9
4 4 3 2 3 3 3 3 3 3 4 4 5 5 5 5 5 5 5 6 6 6 7 8 6 6 7 7 6 7 7 6 6 7 10 11 11 11 11 10 10 10 9
4 3 3 2 3 3 3 3 2 2 3 3 4 5 4 4 4 4 4 5 5 5 5 5 5 7 7 8 7 7 7 6 6 7 10 12 11 11 11 11 10 10 9
4 3 3 2 3 3 4 2 3 3 3 4 4 3 4 3 4 4 4 4 5 5 5 5 5 6 6 7 7 7 7 7 7 7 8 13 12 12 11 11 11 10 9
4 3 3 3 3 3 3 3 3 3 3 3 3 4 4 4 4 3 4 4 4 5 5 5 6 5 5 6 6 7 6 6 7 7 7 9 12 11 11 10 10 9 9
4 4 4 3 3 3 3 3 3 3 3 3 3 4 4 4 4 3 3 4 4 5 5 5 6 5 5 5 6 6 6 6 6 6 6 6 7 10 11 11 10 10 8
5 4 5 4 4 3 3 3 3 3 3 3 3 3 4 4 4 4 3 3 4 4 4 4 4 4 4 4 5 4 4 4 5 5 5 5 6 6 9 11 10 10 9
5 5 6 5 5 4 3 3 3 4 3 3 3 3 3 3 3 3 3 3 4 4 3 3 4 4 4 5 4 4 3 3 4 4 5 6 5 5 6 8 9 10 9
5 5 6 6 5 5 4 3 3 3 3 3 3 3 3 3 3 3 3 4 4 3 3 3 4 4 3 4 4 3 3 3 3 4 4 4 4 5 5 5 5 8 9
7 6 6 7 6 5 4 3 3 3 3 3 3 3 3 3 3 3 2 3 3 3 3 4 4 4 3 2 2 3 3 3 3 3 3 3 4 4 4 5 5 4 5
8 8 8 7 7 6 4 4 3 3 2 3 3 3 3 3 2 2 2 2 2 2 3 3 3 2 2 2 1 1 2 2 2 2 1 1 2 3 3 4 4 4 4
8 8 7 8 7 7 6 4 4 3 3 3 3 2 2 2 2 2 2 2 2 2 3 3 3 3 2 1 1 2 1 1 2 2 2 1 1 1 1 2 3 3 3
8 8 8 8 8 7 7 6 6 4 4 3 3 3 3 3 2 2 2 2 2 2 2 3 3 3 3 2 1 1 1 0 1 1 2 1 1 1 1 1 1 2 2
8 7 8 8 8 8 7 7 6 5 3 3 3 3 3 3 3 3 2 2 2 2 2 3 3 3 3 2 2 1 1 1 2 2 1 1 2 1 0 0 0 1 1
7 7 7 7 8 7 8 8 7 6 5 5 4 4 3 3 3 3 3 3 3 2 2 2 3 3 3 2 2 2 2 1 2 2 2 2 1 1 1 0 0 0 0
Wind_Direction
52 57 69 34 48 50 49 50 50 55 65 73 79 91 91 92 91 87 90 97 97 96 92 90 92 95 98 94 95 95 97 100 102 105 105 102 101 103 106 111 121 111 106
61 74 84 53 62 59 53 53 56 60 71 76 77 86 90 90 89 85 82 91 96 98 92 91 94 94 92 92 93 94 95 96 97 100 110 112 105 101 102 97 84 94 106
75 82 96 76 68 64 56 57 60 62 65 74 79 84 86 90 91 89 85 91 98 97 94 93 93 92 92 91 92 92 92 92 92 98 126 117 110 105 103 99 100 102 109
82 81 73 75 71 67 61 61 64 61 57 67 80 85 88 90 93 89 85 86 94 94 94 92 92 90 92 90 90 92 91 90 89 102 108 95 100 99 99 98 102 105 109
90 83 81 75 71 67 65 65 64 58 54 65 79 87 87 87 87 85 82 84 89 90 93 95 95 91 89 91 91 91 90 90 93 88 78 77 82 88 91 91 93 100 103
97 89 88 78 73 67 67 64 64 60 56 66 78 85 86 85 85 86 85 88 88 88 90 94 94 91 89 88 90 90 90 92 104 83 79 79 81 84 89 91 88 90 94
98 93 90 83 78 73 68 66 64 60 57 65 75 81 85 84 84 86 87 91 92 92 93 92 91 91 89 86 87 86 86 82 81 81 78 75 76 80 86 94 93 91 93
97 96 98 102 84 74 68 65 65 63 60 64 71 73 76 80 80 81 83 87 91 94 96 96 92 90 88 85 85 82 75 64 86 81 77 74 76 80 85 90 93 94 94
98 96 94 101 104 99 79 65 60 58 58 60 67 70 73 75 76 78 80 87 91 94 96 95 93 91 89 86 84 81 74 59 71 73 75 73 75 75 80 84 86 85 87
103 98 94 95 91 97 97 84 71 65 63 64 67 72 77 84 84 82 86 86 88 91 94 96 95 92 90 85 82 78 75 76 69 71 68 74 74 73 77 79 81 80 84
109 101 94 94 91 85 83 94 96 92 81 88 90 87 84 81 81 87 81 84 86 87 90 91 94 96 98 93 85 80 74 68 68 63 62 68 69 71 75 78 81 83 84
123 111 103 97 99 97 88 92 87 82 83 78 75 80 74 72 73 79 90 90 89 92 95 91 98 107 103 94 93 87 74 71 67 67 64 64 68 71 73 76 78 85 86
119 108 100 98 89 93 99 87 84 80 81 77 75 85 83 82 85 81 86 95 92 99 96 103 103 86 83 78 74 73 68 66 65 66 64 65 67 71 72 73 77 81 83
126 114 104 100 105 101 98 92 93 90 84 81 75 80 85 84 83 82 81 81 84 85 85 86 86 86 82 79 76 74 72 68 68 68 62 61 65 69 71 72 74 76 77
145 137 118 117 109 104 98 98 105 95 84 91 83 80 86 87 88 88 90 88 85 88 94 92 90 86 81 74 68 66 67 69 68 72 72 64 62 64 65 65 68 69 70
160 149 136 131 117 117 119 120 101 98 101 88 89 84 83 89 95 95 93 89 86 87 90 96 95 92 87 79 71 65 61 64 67 71 76 78 70 64 62 62 64 63 64
163 156 147 138 129 122 113 102 97 97 99 97 92 85 88 94 100 101 102 102 99 102 102 97 95 92 93 92 81 71 65 62 66 65 64 67 76 74 66 61 60 60 63
166 158 148 148 147 127 118 120 112 103 102 106 102 90 99 101 102 104 106 106 111 114 113 109 105 102 98 92 82 72 71 69 68 66 69 69 62 65 72 65 59 57 58
176 167 158 158 151 140 131 125 114 108 106 107 107 98 101 104 106 103 103 113 120 119 121 119 113 108 102 97 88 74 63 65 64 66 72 69 66 61 68 77 70 59 55
186 176 164 163 162 150 150 141 129 119 117 111 100 103 95 99 102 107 117 120 126 127 128 129 124 114 107 107 97 80 65 74 71 60 65 70 66 61 60 64 74 74 63
189 184 173 174 170 162 162 165 160 152 148 130 113 106 108 104 108 115 129 131 139 138 145 147 138 131 126 126 124 110 98 84 75 73 61 65 72 63 66 66 62 64 77
191 193 186 183 178 175 174 170 166 153 153 135 130 128 127 121 113 123 143 143 148 150 160 159 154 152 143 180 203 189 164 148 117 96 80 70 73 78 67 64 65 64 57
194 194 193 190 185 183 177 168 159 152 161 157 151 152 150 141 139 145 142 145 156 170 173 178 176 184 178 187 267 268 247 149 136 135 102 99 80 65 70 60 62 64 65
196 195 196 192 190 186 181 183 181 186 181 173 166 161 170 169 159 164 172 175 172 171 176 188 190 198 202 190 187 288 315 326 250 165 152 127 113 76 39 55 43 57 65
190 192 197 193 193 190 191 191 201 203 192 177 177 174 182 172 179 183 192 197 194 190 191 190 195 211 218 218 211 194 185 221 255 261 221 191 172 156 165 316 52 34 54
185 186 191 194 194 193 198 200 207 203 198 192 194 187 190 183 191 193 203 210 207 202 201 202 203 213 227 223 228 225 230 244 245 254 250 227 217 181 189 196 243 95 69
Height
1531 1530 1528 1527 1527 1526 1526 1525 1525 1524 1524 1524 1523 1523 1523 1523 1523 1523 1524 1524 1524 1524 1524 1524 1524 1525 1525 1525 1526 1526 1527 1527 1528 1528 1529 1530 1530 1530 1531 1531 1532 1532 1532
1532 1530 1528 1528 1527 1527 1526 1526 1526 1525 1525 1524 1524 1524 1524 1524 1524 1524 1524 1525 1525 1525 1525 1526 1526 1526 1527 1527 1527 1528 1528 1529 1529 1530 1530 1531 1531 1531 1532 1532 1532 1533 1533
1532 1531 1530 1529 1528 1528 1527 1527 1526 1526 1525 1525 1524 1524 1525 1525 1525 1525 1525 1526 1526 1526 1527 1527 1528 1528 1528 1528 1528 1529 1529 1530 1530 1531 1532 1533 1532 1532 1533 1533 1533 1533 1533
1533 1532 1531 1530 1529 1529 1528 1528 1527 1526 1526 1525 1524 1524 1525 1526 1526 1526 1527 1527 1527 1528 1528 1529 1529 1529 1529 1529 1530 1530 1530 1531 1531 1532 1533 1534 1534 1533 1533 1534 1534 1534 1534
1534 1533 1532 1531 1530 1530 1529 1529 1528 1527 1526 1525 1525 1525 1526 1527 1527 1528 1528 1528 1529 1529 1529 1530 1530 1530 1531 1531 1531 1531 1532 1532 1533 1533 1534 1534 1534 1534 1534 1534 1534 1534 1535
1535 1534 1533 1532 1532 1531 1530 1530 1529 1528 1527 1526 1526 1526 1527 1528 1528 1529 1529 1530 1530 1530 1531 1531 1531 1532 1532 1532 1532 1532 1533 1533 1534 1535 1534 1535 1535 1534 1534 1534 1535 1535 1535
1536 1535 1535 1533 1533 1532 1531 1531 1530 1529 1528 1527 1527 1528 1528 1529 1530 1530 1531 1531 1531 1531 1532 1532 1533 1533 1533 1533 1534 1534 1534 1535 1535 1536 1536 1536 1535 1535 1535 1535 1535 1535 1535
1537 1537 1536 1535 1534 1534 1533 1532 1532 1531 1530 1529 1529 1530 1530 1531 1531 1532 1532 1532 1532 1533 1533 1534 1534 1534 1534 1535 1535 1535 1535 1536 1537 1537 1537 1537 1536 1536 1535 1535 1535 1536 1536
1537 1537 1537 1537 1536 1535 1534 1534 1533 1532 1532 1532 1531 1532 1532 1532 1533 1533 1533 1533 1534 1534 1535 1535 1535 1536 1536 1536 1536 1537 1537 1537 1538 1538 1539 1538 1537 1537 1536 1536 1536 1536 1536
1538 1538 1538 1538 1538 1538 1537 1535 1534 1534 1534 1534 1534 1534 1534 1534 1534 1535 1535 1535 1536 1536 1536 1537 1537 1537 1537 1538 1538 1538 1538 1539 1540 1540 1540 1539 1538 1538 1537 1537 1537 1537 1537
1539 1539 1539 1539 1539 1539 1538 1537 1536 1536 1536 1535 1536 1536 1536 1537 1537 1537 1536 1537 1537 1537 1538 1538 1538 1539 1539 1539 1539 1540 1540 1541 1541 1541 1541 1540 1540 1539 1539 1538 1538 1538 1538
1540 1540 1540 1540 1540 1540 1539 1539 1538 1538 1538 1538 1538 1538 1538 1538 1538 1538 1538 1538 1539 1539 1539 1539 1540 1540 1541 1541 1541 1541 1542 1542 1542 1542 1542 1541 1541 1540 1540 1539 1539 1539 1539
1541 1541 1541 1541 1540 1540 1540 1540 1540 1539 1539 1539 1539 1539 1539 1539 1539 1539 1539 1540 1540 1540 1541 1541 1542 1542 1542 1542 1543 1543 1543 1543 1544 1543 1543 1542 1542 1541 1541 1540 1540 1540 1540
1541 1541 1541 1541 1541 1541 1541 1540 1540 1540 1540 1540 1540 1541 1541 1541 1541 1541 1541 1541 1541 1541 1541 1542 1542 1543 1543 1543 1544 1544 1544 1545 1545 1544 1544 1543 1543 1543 1542 1542 1542 1541 1541
1541 1541 1541 1541 1542 1541 1541 1541 1541 1541 1541 1542 1541 1542 1542 1542 1542 1542 1542 1542 1543 1543 1543 1543 1543 1544 1544 1544 1545 1545 1545 1546 1546 1545 1545 1544 1544 1544 1543 1543 1543 1542 1542
1541 1541 1541 1542 1542 1542 1542 1542 1542 1542 1542 1542 1542 1542 1542 1542 1543 1543 1543 1543 1543 1544 1544 1545 1545 1545 1545 1545 1545 1546 1546 1546 1547 1547 1547 1546 1545 1545 1544 1544 1544 1543 1543
1541 1541 1542 1542 1542 1542 1542 1542 1542 1542 1542 1542 1542 1543 1543 1543 1543 1544 1544 1544 1544 1545 1545 1545 1546 1546 1546 1546 1546 1547 1547 1547 1547 1547 1547 1547 1547 1546 1545 1545 1544 1544 1543
1540 1541 1541 1541 1542 1542 1542 1542 1542 1543 1543 1543 1543 1543 1543 1543 1544 1544 1544 1545 1545 1545 1546 1546 1546 1546 1547 1547 1548 1548 1548 1548 1548 1548 1548 1548 1547 1547 1546 1545 1545 1544 1544
1540 1540 1541 1541 1542 1542 1542 1542 1543 1543 1543 1543 1543 1543 1544 1544 1544 1544 1544 1545 1545 1546 1546 1547 1547 1547 1548 1548 1548 1548 1549 1548 1548 1548 1549 1548 1548 1547 1547 1546 1545 1545 1544
1538 1540 1540 1541 1541 1542 1542 1543 1542 1543 1543 1543 1543 1543 1544 1544 1544 1544 1544 1545 1545 1546 1546 1547 1547 1547 1548 1548 1549 1549 1549 1549 1549 1549 1548 1548 1548 1548 1547 1547 1546 1545 1544
1537 1538 1539 1540 1540 1541 1541 1542 1542 1543 1543 1543 1543 1543 1543 1544 1544 1544 1545 1545 1545 1546 1546 1547 1547 1548 1548 1549 1549 1550 1550 1549 1549 1548 1549 1549 1548 1548 1547 1547 1546 1546 1545
1535 1536 1537 1538 1539 1540 1541 1542 1542 1542 1543 1543 1543 1543 1543 1544 1544 1544 1545 1545 1545 1545 1546 1546 1547 1547 1548 1548 1549 1550 1550 1551 1549 1549 1549 1548 1549 1548 1547 1547 1546 1546 1545
1532 1534 1535 1537 1538 1539 1540 1541 1541 1542 1542 1543 1543 1543 1543 1543 1543 1544 1544 1544 1544 1545 1545 1545 1546 1547 1547 1548 1548 1550 1550 1549 1550 1550 1549 1548 1548 1548 1547 1547 1546 1546 1545
1530 1532 1534 1535 1536 1537 1538 1539 1540 1541 1542 1542 1543 1542 1543 1543 1543 1543 1543 1544 1544 1544 1544 1545 1545 1546 1546 1547 1547 1547 1548 1548 1549 1549 1549 1548 1547 1547 1547 1546 1546 1545 1545
1528 1530 1531 1533 1534 1535 1537 1538 1539 1540 1541 1542 1542 1542 1542 1542 1542 1542 1542 1543 1543 1543 1543 1544 1544 1545 1545 1546 1546 1546 1547 1547 1547 1548 1548 1548 1547 1546 1546 1545 1545 1544 1544
1526 1527 1529 1531 1532 1533 1535 1536 1537 1539 1539 1540 1540 1541 1541 1541 1541 1541 1541 1541 1542 1542 1542 1543 1543 1543 1544 1544 1545 1545 1546 1546 1546 1546 1546 1546 1546 1545 1544 1543 1543 1543 1542